Wetbulb
49.04 43.73 40.01 43.73 45.07 43.94 44.96 43.48 41.38 42.65 45.64 44.63 43.97 43.01 45.23 46.83 47.33 47.45 47.35 48.77 50.87 52.28 53.74 55.20 56.53 56.44 57.05 56.31 55.93 55.80 56.34 57.68 60.08 59.95 59.73 60.02 60.13 60.93 61.82 62.62 63.46 63.54 62.47 61.16
44.67 40.60 44.53 46.68 47.22 45.83 44.75 43.15 41.78 43.90 44.93 43.43 41.26 40.36 45.68 46.56 45.94 47.53 46.99 46.99 49.03 50.31 49.73 48.59 48.24 48.53 49.14 49.34 50.51 51.65 52.42 52.80 53.09 54.16 55.71 57.92 56.82 56.35 55.32 55.82 59.17 58.57 58.29 57.53
41.07 43.57 46.33 46.59 45.06 43.06 44.36 42.57 41.93 41.01 43.05 43.74 41.53 40.28 40.45 44.10 46.54 48.32 47.78 47.00 47.67 48.71 46.91 45.15 46.20 46.06 46.62 47.30 47.90 49.84 50.96 51.72 51.81 52.91 53.84 53.42 53.38 53.15 53.26 53.72 54.27 55.89 56.96 56.91
43.69 44.36 44.36 43.72 42.85 43.89 38.81 45.22 43.76 41.96 39.57 35.62 42.06 35.88 40.11 44.48 44.68 45.98 47.48 48.48 48.68 45.11 45.14 45.65 45.48 44.83 45.92 45.85 47.37 48.86 50.22 49.77 49.84 49.98 49.88 50.11 50.74 50.92 52.24 53.05 54.40 54.79 55.82 55.35
38.91 40.85 41.64 41.94 43.30 44.83 41.48 45.35 43.69 42.80 39.87 36.27 35.54 33.59 36.58 41.22 39.69 42.34 44.34 42.87 43.10 43.79 44.60 44.52 44.46 45.59 45.90 46.50 46.32 47.06 48.07 47.66 47.39 47.71 47.71 47.60 47.98 49.32 50.54 51.30 51.85 53.03 53.67 54.38
40.23 43.97 43.30 42.30 44.02 44.74 45.56 43.46 42.32 41.64 39.63 31.67 34.90 32.41 32.79 36.66 39.59 40.24 40.33 42.40 43.35 43.84 43.83 44.35 45.21 45.71 45.01 45.07 44.76 45.36 46.12 45.79 45.95 45.68 45.76 45.48 45.45 45.87 46.61 47.45 48.39 50.07 51.85 52.33
39.49 39.13 42.10 44.15 41.45 43.92 42.90 37.14 29.51 27.09 27.81 26.32 33.38 32.79 35.27 38.53 38.58 39.35 40.69 41.87 43.22 43.19 42.89 43.20 43.17 43.20 43.35 43.57 43.69 44.29 44.58 44.32 44.28 43.99 43.91 43.92 43.66 43.58 43.59 44.16 45.21 46.17 47.65 49.49
33.80 31.20 39.60 43.09 41.17 39.32 39.30 36.58 29.28 23.60 24.22 25.84 30.89 29.81 34.15 39.34 39.88 40.74 41.35 41.50 42.72 42.60 43.13 43.14 43.23 43.38 43.73 43.91 43.66 43.47 43.33 43.26 43.42 42.93 42.55 42.35 42.43 41.83 41.88 42.24 42.64 43.18 44.24 45.23
32.97 32.39 40.28 41.76 42.29 43.10 38.22 34.89 36.96 28.90 24.97 25.68 27.60 30.79 36.95 38.59 38.99 39.72 40.09 40.38 40.92 41.84 42.57 42.95 43.01 43.10 43.10 42.94 43.38 43.33 43.13 42.97 42.90 42.52 41.82 41.39 40.94 40.65 40.26 40.32 40.43 40.55 41.47 43.19
35.97 31.45 37.93 39.38 42.29 41.96 39.29 39.66 30.58 30.34 18.47 16.91 24.35 26.69 29.62 34.70 36.81 38.71 38.52 38.79 39.93 41.64 42.19 42.37 42.90 43.32 43.55 43.38 43.21 43.00 42.98 42.41 42.26 42.11 41.49 41.33 40.95 40.92 40.31 39.57 38.99 38.97 39.30 40.20
37.11 34.63 34.56 38.60 36.08 35.63 36.35 34.14 34.66 33.21 28.63 22.64 21.65 25.50 33.35 34.73 36.44 37.91 38.30 40.07 40.17 41.02 41.81 41.93 42.61 42.87 43.61 43.03 42.26 41.74 41.71 41.25 40.62 40.69 40.33 39.65 39.37 39.44 39.18 38.61 38.18 37.99 38.09 38.05
37.57 34.66 31.09 34.06 37.24 38.88 38.50 36.07 35.55 26.02 23.03 25.22 25.84 26.04 36.10 35.20 35.19 38.15 38.33 39.81 39.95 41.71 42.26 42.67 42.18 42.41 42.20 41.49 40.68 40.11 39.92 39.62 39.07 39.29 38.89 38.79 38.73 38.32 37.77 37.66 37.69 37.69 37.04 37.29
37.65 32.64 28.54 30.15 34.07 37.16 34.96 36.53 37.06 34.76 29.99 26.35 24.00 26.19 37.40 36.52 37.24 38.84 38.65 39.27 40.31 41.80 41.75 41.85 41.57 40.94 40.37 39.55 39.33 38.50 37.61 36.99 37.22 37.48 37.19 36.91 36.37 35.68 35.25 35.41 35.59 35.72 35.32 35.18
40.81 34.27 29.38 26.01 29.02 34.14 32.21 33.89 35.82 33.77 23.13 26.12 27.06 29.44 32.92 35.00 37.07 38.30 39.37 40.48 40.60 41.79 43.14 41.71 40.84 39.45 39.10 37.56 36.64 36.28 35.94 35.81 35.95 36.09 35.73 34.55 34.01 34.05 33.75 33.83 33.53 33.37 33.32 32.60
36.61 29.42 30.64 32.12 32.47 33.02 33.53 34.06 34.62 33.00 32.88 26.82 30.30 30.86 35.03 37.65 38.54 39.97 40.95 41.28 41.04 41.97 42.09 41.57 39.23 37.40 35.91 35.57 35.45 34.76 34.25 34.53 34.76 34.35 34.13 33.31 32.43 32.13 31.46 30.95 30.80 30.98 30.53 31.11
37.40 30.74 31.01 27.30 31.77 30.70 28.30 32.32 33.28 33.49 33.74 33.32 33.27 32.80 39.05 40.68 39.47 39.31 40.23 40.22 39.65 40.39 40.66 38.80 37.99 36.30 34.63 34.26 33.33 33.21 32.47 32.57 33.19 32.13 31.19 30.25 29.19 28.30 28.21 28.40 28.37 28.41 28.60 29.11
33.78 30.60 24.32 20.68 26.58 25.86 17.92 27.82 31.23 32.61 34.44 34.08 30.30 35.47 37.59 36.78 37.78 37.97 38.76 39.77 39.54 38.99 37.76 36.61 35.56 34.60 33.49 31.82 31.54 29.87 30.10 31.24 29.74 29.13 27.74 27.00 26.86 26.68 26.92 27.12 26.87 26.90 26.72 27.28
31.39 28.19 23.29 16.72 14.48 9.04 25.34 30.85 33.37 32.87 34.11 35.96 35.79 36.70 37.32 37.73 37.21 36.07 35.84 37.98 37.09 36.73 35.62 34.54 33.14 31.87 31.23 29.61 28.24 28.10 28.12 27.94 27.17 25.43 25.12 25.33 24.85 24.79 25.47 25.12 25.08 25.21 25.64 25.74
32.47 27.52 17.39 16.68 6.75 18.88 24.69 28.46 29.28 29.88 27.93 32.53 33.50 34.61 35.26 36.63 35.27 31.94 34.89 35.29 34.66 34.04 33.19 31.50 30.73 30.02 28.04 26.18 25.57 25.71 25.48 25.53 24.28 23.27 22.94 22.82 22.84 22.91 22.94 23.09 23.16 24.04 24.31 24.72
29.87 27.44 19.07 5.42 5.56 5.95 22.70 30.19 34.29 32.49 21.35 31.23 34.03 34.07 34.85 35.29 30.77 31.18 33.34 33.50 32.47 31.94 30.73 29.11 28.17 26.73 25.33 23.77 23.80 24.46 23.94 22.11 20.82 20.81 20.68 20.78 21.35 21.10 20.97 22.11 22.50 23.20 23.63 24.88
8.73 9.66 8.23 3.13 2.23 14.02 26.09 29.72 32.79 17.23 22.71 30.89 31.85 32.67 32.39 32.17 32.38 31.71 32.48 31.46 30.30 28.92 27.89 26.07 25.31 23.64 22.36 22.28 22.86 22.03 21.07 18.90 19.01 18.75 18.08 18.41 18.90 19.05 20.81 21.53 21.02 21.53 21.78 22.42
15.52 10.15 6.38 4.93 3.86 9.33 28.21 30.12 25.69 29.27 31.41 30.51 29.50 31.03 30.17 30.85 30.85 30.63 30.95 29.62 28.37 27.23 25.45 24.65 23.47 22.49 21.15 21.33 20.72 19.47 18.05 17.75 16.14 14.54 14.34 14.44 14.56 17.41 20.40 16.61 18.51 18.86 19.00 18.54
17.28 21.47 17.10 20.05 19.79 27.31 29.56 29.26 31.52 32.59 31.86 31.34 29.89 30.74 31.61 30.48 29.80 30.06 29.80 29.09 28.16 26.90 24.98 23.90 22.03 21.38 20.30 18.81 18.50 16.96 15.71 14.80 12.53 8.51 7.96 9.59 13.25 16.89 17.04 16.50 17.43 17.26 17.44 16.91
24.92 27.83 23.72 25.35 26.69 27.74 30.08 31.10 31.89 32.36 32.24 32.50 30.97 30.16 29.88 29.24 29.43 29.15 28.67 27.34 26.21 25.27 23.82 21.23 18.43 17.14 16.68 15.91 16.69 14.91 14.00 11.89 3.73 4.21 8.52 12.22 13.64 13.62 15.00 16.96 17.80 16.08 15.59 15.89
24.44 26.17 24.57 25.03 27.71 28.73 30.03 30.17 31.75 32.15 32.06 31.05 29.65 30.07 29.77 28.80 27.84 27.21 26.81 26.01 24.89 23.52 19.86 17.35 16.32 15.99 14.44 13.38 12.32 9.07 10.47 6.05 6.60 7.65 9.45 10.26 11.50 10.54 12.66 14.84 14.19 15.93 16.96 18.19
26.48 25.79 23.99 22.34 28.49 28.01 28.90 28.58 30.38 30.77 31.17 30.01 28.79 27.30 27.41 27.98 27.43 26.17 24.62 23.59 21.98 18.61 16.57 14.60 13.07 11.95 10.07 7.63 6.26 4.37 1.11 2.47 0.48 5.95 7.62 7.37 8.89 9.28 11.28 10.92 10.99 16.53 18.81 20.84
MSLP
1016.90 1017.14 1017.19 1017.42 1017.34 1017.67 1017.77 1017.56 1017.09 1016.28 1015.30 1014.75 1015.08 1014.68 1014.49 1014.21 1014.25 1014.57 1015.00 1015.07 1015.17 1015.30 1015.20 1015.50 1015.69 1016.07 1016.50 1016.78 1016.97 1017.14 1017.40 1017.61 1017.94 1018.16 1018.58 1018.58 1018.39 1018.59 1018.56 1018.26 1018.06 1018.17 1018.32 1018.41
1016.86 1016.56 1016.23 1016.55 1016.89 1017.43 1017.83 1017.92 1017.84 1016.78 1016.06 1016.02 1015.81 1015.41 1015.05 1014.83 1014.57 1014.49 1014.87 1015.11 1015.40 1015.51 1015.81 1016.61 1016.98 1017.25 1017.66 1018.15 1018.24 1018.07 1018.18 1018.13 1018.19 1018.29 1018.45 1018.54 1018.47 1018.54 1018.86 1018.69 1018.42 1018.40 1018.46 1018.68
1015.63 1015.33 1015.43 1015.93 1016.58 1017.32 1017.48 1017.76 1017.91 1017.79 1017.03 1016.60 1016.34 1016.13 1015.68 1015.20 1014.84 1014.77 1014.91 1015.16 1015.55 1016.20 1016.75 1017.47 1017.93 1018.48 1018.67 1018.97 1019.07 1018.95 1018.86 1018.85 1018.78 1018.61 1018.67 1018.90 1018.87 1018.89 1018.98 1018.88 1018.88 1018.84 1018.73 1018.93
1015.25 1014.78 1014.80 1015.21 1015.92 1016.52 1017.46 1017.91 1018.26 1018.49 1018.23 1017.93 1017.62 1017.36 1016.14 1015.44 1015.15 1015.20 1015.55 1015.98 1016.36 1017.28 1017.70 1018.21 1018.70 1019.21 1019.54 1019.81 1019.74 1019.30 1019.18 1019.20 1019.22 1019.06 1019.26 1019.57 1019.56 1019.71 1019.67 1019.57 1019.27 1019.17 1019.15 1019.25
1015.03 1014.56 1014.74 1014.94 1015.28 1015.90 1016.70 1017.52 1018.37 1018.86 1018.89 1018.86 1018.65 1018.26 1016.55 1015.72 1015.93 1016.02 1016.02 1016.90 1017.36 1018.01 1018.26 1019.11 1019.49 1019.83 1020.05 1019.96 1020.04 1019.73 1019.73 1019.73 1019.67 1019.53 1019.73 1020.00 1020.06 1020.09 1019.94 1019.91 1019.69 1019.58 1019.29 1019.33
1015.08 1014.82 1014.79 1014.97 1015.47 1015.84 1016.18 1017.88 1019.07 1019.62 1019.90 1020.13 1019.21 1018.68 1017.17 1016.44 1015.98 1016.30 1017.23 1017.54 1017.82 1018.43 1019.17 1019.59 1019.93 1020.11 1020.30 1020.28 1020.33 1020.31 1020.33 1020.17 1020.24 1020.22 1020.32 1020.32 1020.45 1020.34 1020.35 1020.39 1020.25 1020.06 1019.90 1019.65
1015.28 1015.62 1015.42 1014.62 1015.63 1016.64 1016.16 1017.94 1020.19 1021.10 1021.15 1020.29 1019.41 1019.26 1017.35 1016.25 1015.87 1016.24 1017.00 1017.70 1018.30 1019.00 1019.46 1019.96 1020.36 1020.49 1020.66 1020.65 1020.69 1020.68 1020.60 1020.71 1020.81 1020.81 1021.01 1020.95 1020.91 1020.65 1020.84 1020.84 1020.73 1020.55 1020.41 1020.25
1015.21 1016.67 1015.83 1015.29 1015.35 1016.25 1016.66 1017.38 1018.74 1020.08 1021.20 1020.87 1020.04 1019.21 1017.04 1016.23 1016.06 1016.42 1017.02 1017.75 1018.64 1019.21 1019.65 1020.18 1020.46 1020.54 1020.69 1020.65 1020.59 1020.60 1020.68 1020.80 1020.87 1021.18 1021.18 1021.26 1021.17 1021.13 1021.24 1021.12 1021.03 1021.00 1020.88 1020.58
1015.49 1016.38 1016.04 1015.93 1015.73 1016.15 1017.33 1017.97 1018.45 1019.67 1021.31 1021.09 1020.14 1018.91 1017.26 1017.19 1017.36 1017.34 1017.82 1018.24 1018.99 1019.59 1019.93 1020.26 1020.44 1020.67 1020.92 1020.84 1020.77 1020.68 1020.76 1021.05 1021.14 1021.33 1021.32 1021.40 1021.40 1021.30 1021.46 1021.26 1021.24 1021.18 1020.95 1020.65
1014.76 1016.29 1016.63 1016.52 1016.31 1016.59 1016.49 1017.27 1018.72 1019.56 1021.00 1021.36 1020.44 1019.07 1017.77 1017.45 1017.70 1017.79 1018.24 1018.68 1019.20 1019.55 1019.95 1020.37 1020.48 1020.62 1020.71 1020.88 1021.11 1021.18 1021.37 1021.52 1021.49 1021.48 1021.55 1021.61 1021.67 1021.73 1021.74 1021.51 1021.39 1021.26 1021.15 1020.86
1014.54 1015.67 1017.43 1017.04 1017.12 1016.93 1017.15 1017.33 1018.15 1019.02 1020.24 1020.53 1020.81 1019.40 1018.18 1017.68 1017.46 1017.84 1018.22 1018.55 1019.00 1019.59 1019.83 1020.28 1020.35 1020.65 1020.83 1021.20 1021.47 1021.59 1021.70 1021.88 1021.90 1021.82 1021.89 1021.98 1022.00 1021.96 1021.81 1021.62 1021.65 1021.48 1021.20 1020.90
1014.95 1016.18 1017.54 1017.82 1017.73 1017.49 1017.13 1017.50 1017.98 1018.96 1020.67 1020.92 1020.32 1019.64 1018.34 1018.02 1017.34 1017.66 1018.55 1018.85 1019.24 1019.24 1019.70 1020.07 1020.46 1020.91 1021.20 1021.57 1021.75 1022.02 1022.24 1022.35 1022.37 1022.23 1022.35 1022.42 1022.44 1022.37 1022.25 1022.06 1021.86 1021.62 1021.42 1020.98
1015.08 1016.65 1018.03 1018.85 1018.40 1017.94 1017.67 1017.69 1018.04 1018.97 1019.78 1020.59 1020.70 1019.98 1018.57 1018.25 1017.99 1018.42 1018.75 1019.06 1019.29 1019.35 1019.70 1020.25 1020.87 1021.28 1021.68 1022.03 1022.21 1022.50 1023.03 1023.07 1022.72 1022.58 1022.76 1022.85 1022.95 1023.01 1022.78 1022.57 1022.33 1022.04 1021.72 1021.29
1015.34 1017.17 1017.69 1018.25 1018.09 1018.20 1018.38 1018.20 1018.34 1019.15 1020.27 1020.83 1020.46 1019.53 1018.87 1018.56 1018.48 1018.69 1019.01 1019.05 1019.16 1019.28 1019.70 1020.39 1021.10 1021.72 1022.25 1022.55 1022.85 1023.20 1023.38 1023.34 1022.95 1022.92 1023.01 1023.24 1023.31 1023.42 1023.15 1022.84 1022.47 1022.15 1021.92 1021.66
1016.65 1018.52 1018.66 1019.33 1019.26 1018.83 1018.82 1018.73 1018.93 1019.35 1020.02 1020.50 1019.86 1019.31 1018.65 1018.60 1018.54 1018.48 1018.39 1018.57 1018.95 1019.25 1019.67 1020.50 1021.62 1022.39 1022.89 1023.22 1023.54 1023.75 1023.91 1023.83 1023.71 1023.68 1023.84 1024.07 1024.24 1024.06 1023.66 1023.27 1023.06 1022.67 1022.35 1021.87
1018.03 1019.69 1019.85 1020.76 1020.49 1019.89 1019.84 1019.34 1019.15 1019.28 1019.28 1019.29 1019.47 1019.05 1018.31 1017.85 1017.79 1018.09 1018.21 1018.52 1019.08 1019.47 1020.36 1021.23 1022.07 1022.82 1023.51 1023.98 1024.30 1024.50 1024.64 1024.64 1024.50 1024.55 1024.78 1024.97 1024.77 1024.47 1024.20 1023.79 1023.47 1022.92 1022.40 1021.93
1019.31 1020.49 1021.44 1023.05 1022.47 1021.59 1021.09 1019.70 1019.32 1019.15 1018.96 1019.09 1019.23 1018.42 1017.82 1018.09 1018.33 1018.60 1018.81 1018.87 1019.38 1020.19 1021.15 1021.95 1022.67 1023.35 1023.98 1024.50 1024.88 1025.17 1025.19 1025.04 1025.03 1025.21 1025.36 1025.29 1025.09 1024.81 1024.47 1024.14 1023.60 1023.17 1022.69 1022.20
1019.82 1021.11 1022.59 1024.95 1024.51 1023.38 1020.89 1019.42 1018.89 1018.90 1018.87 1018.82 1018.68 1018.23 1018.07 1018.33 1018.68 1019.38 1019.59 1019.75 1020.35 1021.20 1022.19 1022.91 1023.53 1024.14 1024.74 1025.26 1025.52 1025.62 1025.59 1025.61 1025.69 1025.82 1025.84 1025.67 1025.54 1025.38 1024.96 1024.45 1024.01 1023.53 1023.02 1022.52
1020.84 1022.15 1024.70 1026.34 1026.24 1024.55 1021.35 1019.77 1019.29 1019.09 1019.29 1018.98 1018.82 1018.60 1018.45 1018.52 1019.46 1020.55 1020.68 1020.92 1021.69 1022.43 1023.21 1023.94 1024.35 1024.81 1025.49 1025.97 1026.20 1026.13 1026.04 1025.94 1026.01 1026.14 1026.24 1026.36 1026.25 1025.78 1025.26 1024.75 1024.25 1023.69 1023.14 1022.63
1022.59 1023.40 1025.14 1027.41 1027.25 1025.16 1021.64 1019.82 1019.08 1018.78 1019.44 1019.29 1019.21 1019.17 1019.07 1019.23 1020.31 1021.07 1021.60 1022.17 1022.83 1023.40 1024.02 1024.57 1025.01 1025.58 1025.98 1026.29 1026.23 1026.17 1026.40 1026.58 1026.89 1027.11 1027.04 1026.79 1026.30 1025.81 1025.41 1024.94 1024.50 1024.02 1023.46 1022.76
1025.49 1026.25 1027.42 1027.66 1026.68 1024.14 1021.02 1019.79 1019.15 1019.79 1020.25 1019.74 1019.73 1019.79 1019.82 1020.24 1020.81 1021.26 1022.04 1022.74 1023.40 1024.02 1024.56 1025.07 1025.54 1026.07 1026.42 1026.65 1026.66 1026.91 1027.18 1027.51 1027.58 1027.61 1027.40 1027.03 1026.65 1026.21 1025.65 1025.06 1024.53 1023.92 1023.34 1022.78
1025.55 1026.31 1027.12 1026.98 1025.98 1023.38 1020.35 1019.87 1019.82 1019.81 1019.94 1020.02 1020.05 1020.10 1020.35 1020.71 1021.33 1021.88 1022.55 1023.26 1023.78 1024.33 1024.90 1025.43 1025.93 1026.52 1027.04 1027.28 1027.44 1027.66 1027.80 1028.06 1028.03 1027.92 1027.60 1027.24 1026.78 1026.33 1025.78 1025.36 1024.73 1024.21 1023.70 1023.19
1024.85 1024.09 1024.36 1024.32 1022.99 1021.12 1020.08 1019.72 1019.57 1019.76 1020.14 1020.34 1020.38 1020.28 1020.61 1021.31 1021.90 1022.30 1022.83 1023.38 1023.90 1024.45 1025.10 1025.85 1026.56 1027.12 1027.68 1027.87 1027.77 1027.95 1028.22 1028.22 1028.13 1028.18 1027.99 1027.53 1027.03 1026.48 1025.93 1025.35 1024.86 1024.35 1023.78 1023.34
1023.34 1022.99 1023.07 1022.91 1021.35 1020.94 1020.32 1019.81 1019.82 1019.92 1020.19 1020.04 1020.14 1020.44 1021.01 1021.54 1022.04 1022.57 1023.13 1023.73 1024.32 1025.03 1025.74 1026.49 1027.22 1027.83 1028.07 1028.22 1028.28 1028.51 1028.62 1028.59 1028.84 1028.85 1028.31 1027.66 1027.00 1026.29 1025.77 1025.48 1025.10 1024.66 1024.10 1023.53
1023.00 1022.58 1022.48 1022.27 1021.42 1020.96 1020.08 1019.70 1019.49 1019.62 1019.86 1020.14 1020.39 1020.75 1021.24 1021.84 1022.40 1022.97 1023.70 1024.37 1025.01 1025.74 1026.42 1026.91 1027.48 1027.90 1028.30 1028.52 1028.66 1028.78 1028.83 1028.94 1029.03 1028.70 1028.07 1027.51 1027.02 1026.71 1026.24 1025.75 1025.33 1024.73 1024.23 1023.61
1021.76 1021.15 1021.18 1020.45 1019.82 1019.53 1019.42 1019.01 1019.10 1019.65 1020.05 1020.37 1020.91 1021.35 1021.75 1022.22 1022.82 1023.41 1024.26 1024.85 1025.40 1026.02 1026.61 1027.26 1027.70 1028.12 1028.43 1028.72 1029.04 1029.03 1029.11 1029.09 1029.21 1028.96 1028.38 1027.95 1027.48 1026.93 1026.43 1025.90 1025.06 1024.67 1024.07 1023.42
Wind_Speed
5 4 7 9 11 10 1 1 4 1 4 5 5 5 5 2 4 7 7 7 8 8 6 5 2 1 6 5 4 3 5 3 2 1 1 2 3 2 3 4 6 4 2 1
6 9 8 10 13 11 10 6 0 4 3 3 4 2 2 5 3 4 5 5 6 5 7 8 9 9 10 7 8 9 9 7 3 1 1 0 1 2 1 3 2 1 2 3
13 13 12 10 12 8 6 11 3 3 5 3 2 6 2 4 4 4 1 1 3 5 7 6 8 8 8 9 8 7 6 7 6 6 3 3 3 2 3 2 2 3 4 4
6 5 15 9 12 13 6 5 7 1 3 2 4 3 5 5 8 7 8 6 2 7 6 6 7 7 7 5 5 6 7 6 5 7 5 4 2 1 2 2 2 3 4 4
5 10 12 10 11 12 7 13 6 5 4 2 3 3 7 2 2 4 5 5 8 6 8 7 7 7 5 6 5 5 5 6 6 6 5 3 3 2 2 3 5 5 4 3
3 0 4 6 7 1 10 12 9 6 3 1 6 4 5 5 8 5 4 7 7 8 8 8 7 6 5 5 6 5 5 5 6 6 5 6 5 4 4 4 4 4 4 4
5 3 4 4 14 4 14 7 3 3 1 5 2 3 9 4 3 8 9 8 8 8 8 8 7 5 4 5 4 4 6 5 5 6 6 6 5 5 4 3 2 4 3 3
6 5 4 1 5 10 7 4 6 8 5 3 2 6 7 1 3 8 9 10 9 9 7 7 6 4 4 5 5 5 5 4 4 4 4 4 4 3 3 3 3 4 3 4
6 3 2 4 3 14 6 5 3 7 4 4 4 4 8 6 6 7 9 8 9 8 8 7 5 3 4 4 4 4 5 4 4 3 3 4 3 4 4 5 3 3 4 3
4 7 1 2 4 3 4 9 3 3 5 2 4 3 5 5 7 6 6 8 8 8 7 6 4 3 3 4 4 5 4 4 3 4 4 4 5 5 4 4 5 6 5 5
5 5 3 5 3 6 5 4 2 6 4 6 4 5 2 2 4 9 8 8 9 9 8 6 3 2 4 5 5 5 7 7 7 6 6 6 6 6 5 5 5 5 5 6
1 5 6 3 3 3 2 5 4 6 5 1 3 5 1 3 3 10 7 7 5 7 7 7 3 5 5 6 6 7 6 7 6 6 6 6 6 7 7 7 7 7 7 6
5 3 7 3 4 3 4 3 5 4 3 4 7 5 2 4 8 6 8 7 6 7 6 2 3 4 6 6 6 7 6 5 5 6 6 6 6 6 6 6 6 6 6 6
7 4 4 7 4 6 5 4 5 5 4 3 4 4 2 4 6 5 5 6 6 6 7 5 6 6 6 6 6 6 6 5 6 6 6 7 8 8 9 8 9 9 8 7
6 5 4 6 4 5 4 7 7 5 5 5 3 5 4 5 3 5 4 5 6 7 4 7 7 6 6 6 6 6 6 7 6 7 7 7 7 8 8 8 9 9 8 8
4 4 1 6 7 7 4 3 4 3 3 3 2 6 7 8 4 6 8 6 6 6 7 8 7 7 6 5 5 5 6 6 6 6 6 6 7 7 7 7 9 8 8 9
5 5 4 1 4 4 6 6 5 3 3 7 6 10 3 4 5 5 6 6 4 9 8 7 7 6 5 5 5 5 5 5 6 6 6 7 7 8 8 8 8 9 9 9
6 4 4 3 4 2 8 3 5 6 4 7 4 6 4 5 1 5 6 3 8 8 7 6 5 5 6 5 6 5 6 6 6 6 6 7 8 8 8 9 9 9 8 10
6 4 5 6 4 4 6 4 6 7 3 1 7 7 5 5 6 5 5 6 6 6 6 5 5 5 6 6 4 4 5 5 6 8 8 8 8 9 9 9 9 9 9 9
7 8 6 4 6 7 6 1 3 4 4 2 3 2 3 3 2 4 5 5 6 6 5 5 6 5 6 5 5 5 5 6 8 8 9 8 7 8 8 8 9 9 8 9
4 5 6 2 2 8 7 4 2 8 7 2 1 0 1 2 2 4 6 4 4 4 6 5 5 5 3 4 5 5 5 6 5 6 7 7 7 8 7 7 7 7 8 8
6 6 3 4 5 7 5 3 6 5 2 4 2 3 4 5 5 4 4 5 5 5 3 3 3 4 3 4 4 3 4 3 4 6 6 7 7 6 6 6 6 7 6 8
2 7 7 8 8 5 4 2 2 4 5 4 3 3 6 7 6 6 5 6 5 5 3 3 3 3 4 3 2 2 2 3 4 5 5 5 6 5 6 7 9 7 7 7
2 3 2 4 5 7 8 6 5 7 8 6 5 6 5 5 6 6 4 4 3 2 1 2 3 3 1 2 4 2 3 5 4 5 5 5 6 8 6 5 6 6 6 7
6 5 6 5 6 7 8 8 7 5 6 6 5 7 7 6 5 5 4 5 4 3 2 3 3 2 1 1 0 1 2 1 3 3 4 5 5 5 7 6 6 6 6 8
7 8 6 8 9 6 4 3 2 4 5 7 7 4 4 5 6 4 3 3 4 5 4 3 3 3 3 3 3 3 2 1 2 4 3 4 4 4 5 5 7 10 13 16
Wind_Direction
196 156 182 177 189 225 7 189 86 342 1 31 172 157 181 184 107 103 105 123 139 140 151 142 164 144 104 79 85 94 142 163 138 132 211 251 214 256 261 249 239 227 181 121
161 202 200 167 179 196 192 182 292 267 26 74 31 106 173 171 184 145 121 115 141 125 79 58 57 52 54 52 38 36 26 12 32 92 265 159 110 65 354 339 0 349 25 24
178 179 182 154 145 144 169 202 159 22 331 50 13 336 247 251 173 181 212 177 103 82 99 79 67 61 47 39 27 33 26 33 35 32 64 37 33 26 10 354 348 358 46 45
188 180 175 160 176 149 142 157 115 154 54 91 38 272 268 235 222 194 190 212 184 107 75 66 64 59 58 38 32 44 51 54 44 38 50 42 71 24 349 356 354 0 3 358
188 157 155 171 176 158 148 136 126 173 129 100 201 160 271 49 121 215 217 126 110 104 97 76 73 79 55 47 41 38 57 53 38 48 59 55 35 12 355 354 1 343 334 305
120 260 112 154 92 253 127 99 53 34 52 135 250 137 280 182 195 128 132 129 111 94 88 84 79 83 73 52 50 49 66 49 36 38 36 59 60 23 22 354 357 353 348 350
109 33 318 128 96 314 122 122 84 23 13 210 289 160 246 220 116 156 154 132 114 108 100 98 100 98 103 91 76 69 62 51 36 37 27 30 33 37 21 359 349 347 337 339
128 157 195 151 134 167 177 116 154 166 178 224 7 212 259 302 134 126 131 129 116 112 117 123 137 132 115 102 92 84 81 71 50 43 30 19 21 15 347 354 350 335 322 325
133 81 97 64 94 138 184 173 189 104 37 102 209 270 323 110 60 107 125 126 133 136 133 129 127 118 110 96 90 96 83 66 52 39 31 15 14 17 347 342 341 322 320 310
128 108 352 78 77 18 199 141 107 353 128 178 267 202 222 154 178 171 146 153 154 143 136 135 124 108 80 76 67 61 63 73 53 41 35 28 9 355 344 352 343 334 319 321
121 100 122 114 189 173 143 173 125 111 122 143 149 255 263 331 227 178 182 162 152 151 156 158 161 193 144 100 74 69 59 51 37 33 27 29 16 12 13 14 352 341 329 331
123 109 114 130 278 275 227 158 123 125 236 175 134 261 65 331 54 107 97 112 139 157 164 181 188 214 110 97 76 67 56 53 32 33 33 31 25 18 18 11 0 354 346 341
176 113 117 96 15 328 193 180 120 98 71 190 133 249 36 98 77 92 109 114 129 137 148 168 94 87 107 85 74 75 59 52 35 41 37 30 23 14 10 0 351 348 342 336
87 81 144 177 118 125 154 167 144 110 102 173 206 165 96 97 109 105 122 154 161 180 175 138 105 95 87 75 66 57 42 28 25 32 30 27 17 8 1 356 357 353 346 335
89 95 89 79 74 99 123 169 173 160 161 146 228 195 199 167 216 257 252 210 203 211 160 128 114 107 88 64 51 41 28 17 13 23 24 19 5 359 354 353 345 337 334 331
11 115 61 57 33 57 88 76 102 116 162 150 233 283 226 263 302 314 290 251 217 220 133 113 111 101 88 76 57 37 19 11 22 22 29 10 360 347 342 338 331 328 331 333
114 153 104 23 354 47 357 212 177 181 182 154 208 234 243 283 294 271 283 271 257 130 130 120 115 112 100 77 52 33 8 12 20 36 15 4 354 345 341 332 334 337 334 328
114 105 80 146 30 54 246 311 176 189 223 221 256 262 237 225 123 53 352 131 107 112 121 116 109 99 78 57 40 20 22 22 41 30 9 360 352 341 338 337 338 333 332 331
41 89 82 124 166 279 307 168 160 170 220 315 229 278 280 250 98 26 27 49 86 90 84 84 72 66 70 49 19 23 32 48 36 20 5 351 343 338 339 339 337 330 329 325
35 53 100 63 122 181 239 264 314 101 307 2 101 67 13 77 141 236 142 115 101 96 86 75 62 67 63 23 12 44 35 44 28 5 347 333 332 333 328 329 333 326 325 328
24 10 129 117 151 288 244 264 14 93 230 182 154 328 324 162 198 141 135 110 100 93 82 67 68 82 69 24 23 44 51 32 4 345 329 331 333 323 309 316 316 320 326 330
156 127 191 78 70 286 191 60 161 195 158 183 200 171 110 120 126 133 132 124 128 129 121 104 87 66 69 44 41 43 53 9 360 346 331 322 307 310 325 317 314 322 326 329
223 175 180 176 210 244 249 148 126 134 158 209 212 188 149 152 182 179 196 187 191 170 152 86 55 64 71 51 70 56 11 358 353 341 316 302 305 321 336 341 336 333 335 332
274 187 161 80 257 233 256 264 211 187 198 199 208 185 176 184 178 194 192 195 190 166 169 102 85 81 146 53 48 38 353 7 348 313 310 319 343 344 344 336 333 330 328 327
205 127 180 255 272 285 261 226 239 215 193 185 173 180 197 187 209 209 202 187 188 168 141 136 162 197 212 80 359 320 10 1 336 324 333 338 336 331 327 328 326 325 312 312
188 183 175 217 206 175 220 126 122 181 218 212 190 202 202 191 210 181 169 171 174 178 168 164 194 202 236 234 261 276 294 55 12 319 322 324 315 318 320 316 314 316 319 323